Home > Weather > Bari > Past weeks

Flag for Italy Past Weather in Bari, Italy — Yesterday and Last 2 Weeks

Now
72 °F

Clear.


Feels Like: 71 °F
Forecast: 65 / 89 °F
Wind: 5 mph from West

Location: Bari / Palese Macchie

Current Time: Jul 1, 2016 at 2:52:44 AM

Latest Report: Jul 1, 2016 at 1:50 AM


Visibility: 10 mi

Pressure: 30.01 "Hg

Humidity: 83%

Dew Point: 66 °F

Location of BariLocation

Past Weather in Bari — Graph

°F

Bari Temperature Yesterday

Maximum temperature yesterday: 86 °F (at 9:50 AM)
Minimum temperature yesterday: 63 °F (at 4:20 AM)
Average temperature yesterday: 76 °F

High & Low Weather Summary for the Past Weeks

 TemperatureHumidityPressure
High93 °F (Jun 27, 5:20 PM)100% (Jun 16, 4:20 PM)30.15 "Hg (Jun 16, 4:20 PM)
Low55 °F (Jun 20, 4:20 AM)26% (Jun 27, 5:20 PM)29.65 "Hg (Jun 16, 7:20 AM)
Average76 °F63%29.96 "Hg
* Reported Jun 16 1:20 AM — Jul 1 1:50 AM, Bari, Weather by CustomWeather, © 2016

Note: Actual official high and low records may vary slightly from our data, if they occured in-between our weather recording intervals... More about our weather records

Advertising

Bari Weather History for the Previous 24 Hours

Scroll right to see more
 ConditionsComfort  
Time TempWeatherWind HumidityBarometerVisibility
1:50 AM
Fri, Jul 1
72 °FClear.5 mph83%30.01 "Hg10 mi
12:50 AM72 °FClear.3 mph88%30.01 "Hg10 mi
11:50 PM
Thu, Jun 30
73 °FClear.3 mph83%30.01 "Hg10 mi
11:20 PM75 °FPassing clouds.5 mph83%30.01 "HgN/A
10:50 PM75 °FClear.5 mph83%30.01 "Hg10 mi
10:20 PM77 °FClear.5 mph79%30.01 "Hg10 mi
9:50 PM77 °FClear.3 mph74%30.01 "Hg10 mi
9:20 PM77 °FSunny.2 mph74%30.01 "Hg10 mi
8:50 PM77 °FSunny.3 mph74%29.98 "Hg10 mi
8:20 PM77 °FSunny.6 mph69%29.98 "Hg10 mi
7:50 PM79 °FPassing clouds.6 mph65%29.98 "HgN/A
7:20 PM79 °FSunny.9 mph61%29.98 "Hg10 mi
6:50 PM81 °FSunny.12 mph58%29.98 "Hg10 mi
6:20 PM81 °FSunny.10 mph58%29.95 "Hg10 mi
5:50 PM84 °FPassing clouds.10 mph48%29.95 "HgN/A
5:20 PM84 °FPassing clouds.9 mph45%29.98 "HgN/A
4:50 PM82 °FSunny.13 mph55%29.98 "Hg10 mi
4:20 PM84 °FPassing clouds.13 mph43%29.98 "HgN/A
3:50 PM84 °FPassing clouds.12 mph35%29.98 "HgN/A
3:20 PM84 °FSunny.14 mph48%29.98 "Hg10 mi
2:50 PM84 °FSunny.13 mph45%29.98 "Hg10 mi
2:20 PM84 °FSunny.13 mph45%29.98 "Hg10 mi
1:50 PM84 °FSunny.13 mph37%29.98 "Hg10 mi
1:20 PM84 °FPassing clouds.12 mph40%29.98 "HgN/A
12:50 PM84 °FSunny.12 mph37%29.98 "Hg10 mi
12:20 PM84 °FSunny.12 mph37%30.01 "Hg10 mi
11:50 AM84 °FPassing clouds.10 mph40%29.98 "HgN/A
11:20 AM86 °FPassing clouds.8 mph35%29.98 "HgN/A
10:50 AM84 °FPassing clouds.8 mph37%29.98 "HgN/A
10:20 AM86 °FPassing clouds.7 mph33%29.98 "HgN/A
9:50 AM86 °FSunny.2 mph35%29.98 "Hg10 mi
9:20 AM84 °FSunny.2 mph35%29.98 "Hg10 mi
8:50 AM82 °FSunny.2 mph32%29.98 "Hg10 mi
7:50 AM77 °FPassing clouds.5 mph42%29.98 "HgN/A
7:20 AM73 °FPassing clouds.5 mph50%29.98 "HgN/A
6:50 AM68 °FSunny.6 mph56%29.98 "Hg10 mi
6:20 AM64 °FClear.6 mph64%29.98 "Hg10 mi
5:50 AM63 °FClear.7 mph68%29.98 "Hg10 mi
5:20 AM63 °FClear.7 mph68%29.98 "Hg10 mi
4:50 AM63 °FClear.8 mph68%29.98 "Hg10 mi
4:20 AM63 °FClear.6 mph68%29.98 "Hg10 mi
3:50 AM64 °FClear.6 mph68%29.98 "Hg10 mi
3:20 AM64 °FClear.6 mph68%29.98 "Hg10 mi
2:50 AM64 °FClear.7 mph68%29.98 "Hg10 mi
2:20 AM64 °FClear.7 mph68%29.98 "Hg10 mi
Weather by CustomWeather, © 2016

See weather overviewHow to use our weather pages